| time (UTC) | temp F | wind direction | speed MPH | gust MPH | rain 1hr in | rain 24hr in | rain mn in | humidity % | barometer mb |
| 20260905205005 | 81 | 78 | 1.0 | 2.0 | 0.00 | 1.03 | 0.11 | 91 | 1011.0 |
| 20260905204004 | 81 | 78 | 1.0 | 3.0 | 0.00 | 1.03 | 0.11 | 92 | 1010.8 |
| 20260905203005 | 81 | 73 | 1.0 | 2.0 | 0.00 | 1.03 | 0.11 | 91 | 1010.9 |
| 20260905202005 | 81 | 87 | 1.0 | 6.0 | 0.00 | 1.03 | 0.11 | 90 | 1010.8 |
| 20260905201005 | 82 | 83 | 1.0 | 6.0 | 0.00 | 1.03 | 0.11 | 91 | 1010.9 |
| 20260905200005 | 83 | 338 | 1.0 | 2.0 | 0.00 | 1.03 | 0.11 | 90 | 1011.1 |
| 20260905195005 | 83 | 355 | 1.0 | 2.0 | 0.00 | 1.03 | 0.11 | 90 | 1011.2 |
| 20260905194005 | 82 | 352 | 1.0 | 2.0 | 0.00 | 1.03 | 0.11 | 89 | 1011.3 |
| 20260905193004 | 82 | 357 | 2.0 | 7.0 | 0.00 | 1.03 | 0.11 | 89 | 1011.6 |
| 20260905192005 | 83 | 347 | 1.0 | 4.0 | 0.00 | 1.03 | 0.11 | 90 | 1011.0 |
| 20260905191004 | 83 | 219 | 0.0 | 2.0 | 0.00 | 1.03 | 0.11 | 91 | 1011.1 |
| 20260905190005 | 83 | 176 | 0.0 | 1.0 | 0.00 | 1.03 | 0.11 | 92 | 1011.3 |
| 20260905185005 | 82 | 80 | 0.0 | 2.0 | 0.00 | 1.03 | 0.11 | 92 | 1011.5 |
| 20260905184214 | 82 | 321 | 0.0 | 1.0 | 0.00 | 1.03 | 0.11 | 91 | 1011.8 |
| 20260905183004 | 80 | 102 | 0.0 | 2.0 | 0.00 | 1.03 | 0.11 | 92 | 1011.0 |
| 20260905182216 | 81 | 24 | 0.0 | 3.0 | 0.09 | 1.03 | 0.11 | 93 | 1011.0 |
| 20260905181005 | 80 | 128 | 0.0 | 1.0 | 0.11 | 1.03 | 0.11 | 94 | 1011.6 |
| 20260905180005 | 79 | 0 | 0.0 | 0.0 | 0.11 | 1.03 | 0.11 | 94 | 1011.5 |
| 20260905175005 | 80 | 156 | 0.0 | 1.0 | 0.11 | 1.03 | 0.11 | 95 | 1011.2 |
| 20260905174004 | 80 | 166 | 0.0 | 2.0 | 0.11 | 1.03 | 0.11 | 94 | 1011.5 |
| 20260905173005 | 80 | 330 | 2.0 | 9.0 | 0.11 | 1.03 | 0.11 | 93 | 1011.6 |
| 20260905172004 | 87 | 341 | 2.0 | 6.0 | 0.00 | 0.92 | 0.00 | 84 | 1011.7 |
| 20260905171005 | 89 | 347 | 2.0 | 6.0 | 0.00 | 0.92 | 0.00 | 80 | 1011.6 |
| 20260905170005 | 93 | 209 | 1.0 | 4.0 | 0.00 | 0.92 | 0.00 | 72 | 1011.7 |
| 20260905165005 | 91 | 198 | 1.0 | 3.0 | 0.00 | 0.92 | 0.00 | 75 | 1012.0 |
| 20260905164215 | 91 | 208 | 1.0 | 2.0 | 0.00 | 0.92 | 0.00 | 79 | 1012.2 |
| 20260905163005 | 87 | 211 | 1.0 | 3.0 | 0.00 | 0.92 | 0.00 | 83 | 1012.6 |
| 20260905162004 | 87 | 199 | 0.0 | 1.0 | 0.00 | 0.92 | 0.00 | 84 | 1012.6 |
| 20260905161218 | 87 | 204 | 0.0 | 2.0 | 0.00 | 0.92 | 0.00 | 85 | 1012.7 |
| 20260905160006 | 86 | 263 | 1.0 | 2.0 | 0.00 | 0.92 | 0.00 | 86 | 1012.7 |
| 20260905155215 | 86 | 281 | 1.0 | 3.0 | 0.00 | 0.92 | 0.00 | 84 | 1012.6 |
| 20260905154005 | 87 | 262 | 1.0 | 7.0 | 0.00 | 0.92 | 0.00 | 82 | 1013.1 |
| 20260905153005 | 88 | 268 | 1.0 | 3.0 | 0.00 | 0.92 | 0.00 | 81 | 1012.7 |
| 20260905152218 | 88 | 300 | 2.0 | 4.0 | 0.00 | 0.92 | 0.00 | 82 | 1012.8 |
| 20260905151005 | 88 | 341 | 1.0 | 4.0 | 0.00 | 0.92 | 0.00 | 82 | 1013.0 |
| 20260905150006 | 87 | 241 | 1.0 | 4.0 | 0.00 | 0.92 | 0.00 | 86 | 1013.1 |
| 20260905145216 | 87 | 195 | 1.0 | 4.0 | 0.00 | 0.92 | 0.00 | 86 | 1013.2 |
| 20260905144004 | 85 | 266 | 1.0 | 3.0 | 0.00 | 0.92 | 0.00 | 89 | 1013.3 |
| 20260905143217 | 83 | 233 | 1.0 | 2.0 | 0.00 | 0.92 | 0.00 | 91 | 1013.2 |
| 20260905142004 | 81 | 329 | 1.0 | 2.0 | 0.00 | 0.92 | 0.00 | 95 | 1013.2 |
| 20260905141005 | 80 | 280 | 1.0 | 2.0 | 0.00 | 0.92 | 0.00 | 97 | 1013.2 |
| 20260905140215 | 80 | 234 | 1.0 | 2.0 | 0.00 | 0.92 | 0.00 | 98 | 1013.1 |
| 20260905135216 | 80 | 264 | 0.0 | 2.0 | 0.00 | 0.92 | 0.00 | 99 | 1013.2 |
| 20260905134004 | 80 | 269 | 0.0 | 2.0 | 0.00 | 0.92 | 0.00 | 99 | 1013.3 |
| 20260905133004 | 79 | 275 | 0.0 | 2.0 | 0.00 | 0.92 | 0.00 | 99 | 1012.9 |
| 20260905132004 | 79 | 296 | 0.0 | 1.0 | 0.00 | 0.92 | 0.00 | 99 | 1013.0 |
| 20260905131215 | 78 | 251 | 1.0 | 3.0 | 0.00 | 0.92 | 0.00 | 99 | 1013.0 |
| 20260905130005 | 78 | 239 | 1.0 | 3.0 | 0.00 | 0.92 | 0.00 | 99 | 1012.8 |
| 20260905125217 | 78 | 271 | 0.0 | 2.0 | 0.00 | 0.92 | 0.00 | 99 | 1013.1 |
| 20260905124004 | 78 | 176 | 0.0 | 2.0 | 0.00 | 0.92 | 0.00 | 99 | 1012.8 |
| 20260905123005 | 77 | 179 | 0.0 | 1.0 | 0.00 | 0.92 | 0.00 | 99 | 1012.8 |
| 20260905122004 | 77 | 184 | 0.0 | 0.0 | 0.00 | 0.92 | 0.00 | 99 | 1013.1 |
| 20260905121005 | 76 | 190 | 0.0 | 1.0 | 0.00 | 0.92 | 0.00 | 99 | 1012.6 |
| 20260905120006 | 76 | 0 | 0.0 | 0.0 | 0.00 | 0.92 | 0.00 | 99 | 1012.6 |
| 20260905115004 | 76 | 0 | 0.0 | 0.0 | 0.00 | 0.92 | 0.00 | 99 | 1012.0 |
| 20260905114005 | 76 | 231 | 0.0 | 1.0 | 0.00 | 0.92 | 0.00 | 99 | 1012.1 |
| 20260905113005 | 76 | 196 | 0.0 | 2.0 | 0.00 | 0.92 | 0.00 | 99 | 1011.9 |
| 20260905112005 | 76 | 220 | 1.0 | 4.0 | 0.00 | 0.92 | 0.00 | 99 | 1012.1 |
| 20260905111216 | 76 | 242 | 0.0 | 1.0 | 0.00 | 0.92 | 0.00 | 99 | 1011.9 |
| 20260905110006 | 76 | 260 | 0.0 | 2.0 | 0.00 | 0.92 | 0.00 | 99 | 1011.8 |
| 20260905105004 | 76 | 214 | 1.0 | 2.0 | 0.00 | 0.92 | 0.00 | 99 | 1012.1 |
| 20260905104005 | 76 | 0 | 0.0 | 0.0 | 0.00 | 0.92 | 0.00 | 99 | 1011.9 |
| 20260905103215 | 76 | 0 | 0.0 | 0.0 | 0.00 | 0.92 | 0.00 | 99 | 1012.1 |
| 20260905102216 | 76 | 0 | 0.0 | 0.0 | 0.00 | 0.92 | 0.00 | 99 | 1012.0 |
| 20260905101217 | 76 | 0 | 0.0 | 0.0 | 0.00 | 0.92 | 0.00 | 99 | 1011.9 |
| 20260905100218 | 76 | 301 | 0.0 | 1.0 | 0.00 | 0.92 | 0.00 | 99 | 1012.0 |
| 20260905095214 | 76 | 19 | 0.0 | 2.0 | 0.00 | 0.92 | 0.00 | 99 | 1011.7 |
| 20260905094005 | 76 | 144 | 0.0 | 1.0 | 0.00 | 0.92 | 0.00 | 99 | 1011.6 |
| 20260905093005 | 76 | 0 | 0.0 | 0.0 | 0.00 | 0.92 | 0.00 | 99 | 1011.5 |
| 20260905092004 | 76 | 0 | 0.0 | 0.0 | 0.00 | 0.92 | 0.00 | 99 | 1011.7 |
| 20260905091005 | 76 | 0 | 0.0 | 0.0 | 0.00 | 0.92 | 0.00 | 99 | 1011.7 |
| 20260905090005 | 76 | 0 | 0.0 | 0.0 | 0.00 | 0.92 | 0.00 | 99 | 1011.8 |
| 20260905085005 | 76 | 0 | 0.0 | 0.0 | 0.00 | 0.92 | 0.00 | 99 | 1011.6 |
| 20260905084005 | 76 | 0 | 0.0 | 0.0 | 0.00 | 0.92 | 0.00 | 99 | 1011.8 |
| 20260905083216 | 76 | 0 | 0.0 | 0.0 | 0.00 | 0.92 | 0.00 | 99 | 1011.5 |
| 20260905082005 | 76 | 0 | 0.0 | 0.0 | 0.00 | 0.92 | 0.00 | 99 | 1011.8 |
| 20260905081005 | 76 | 0 | 0.0 | 0.0 | 0.00 | 0.92 | 0.00 | 99 | 1011.7 |
| 20260905080219 | 76 | 0 | 0.0 | 0.0 | 0.00 | 0.92 | 0.00 | 99 | 1011.5 |
| 20260905075005 | 76 | 0 | 0.0 | 0.0 | 0.00 | 0.92 | 0.00 | 99 | 1011.2 |
| 20260905074005 | 76 | 0 | 0.0 | 0.0 | 0.00 | 0.92 | 0.00 | 99 | 1011.5 |
| 20260905073005 | 76 | 0 | 0.0 | 0.0 | 0.00 | 0.92 | 0.00 | 99 | 1011.7 |
| 20260905072004 | 76 | 0 | 0.0 | 0.0 | 0.00 | 0.92 | 0.00 | 99 | 1011.7 |
| 20260905071219 | 76 | 0 | 0.0 | 0.0 | 0.00 | 0.92 | 0.00 | 99 | 1011.8 |
| 20260905070006 | 76 | 0 | 0.0 | 0.0 | 0.00 | 0.92 | 0.00 | 99 | 1011.9 |
| 20260905065004 | 76 | 0 | 0.0 | 0.0 | 0.00 | 0.92 | 0.00 | 99 | 1012.0 |
| 20260905064217 | 76 | 0 | 0.0 | 0.0 | 0.00 | 0.92 | 0.00 | 99 | 1012.0 |
| 20260905063005 | 76 | 0 | 0.0 | 0.0 | 0.00 | 0.92 | 0.00 | 99 | 1012.1 |
| 20260905062004 | 76 | 0 | 0.0 | 0.0 | 0.00 | 0.92 | 0.00 | 99 | 1012.3 |
| 20260905061005 | 76 | 0 | 0.0 | 0.0 | 0.00 | 0.92 | 0.00 | 99 | 1012.1 |
| 20260905060215 | 76 | 0 | 0.0 | 0.0 | 0.00 | 0.92 | 0.00 | 99 | 1012.4 |
| 20260905055005 | 76 | 0 | 0.0 | 0.0 | 0.00 | 0.92 | 0.00 | 99 | 1012.6 |
| 20260905054005 | 76 | 0 | 0.0 | 0.0 | 0.00 | 0.92 | 0.00 | 99 | 1012.7 |
| 20260905053005 | 76 | 0 | 0.0 | 0.0 | 0.00 | 0.92 | 0.00 | 99 | 1012.7 |
| 20260905052219 | 76 | 0 | 0.0 | 0.0 | 0.00 | 0.92 | 0.00 | 99 | 1012.7 |
| 20260905051215 | 76 | 48 | 0.0 | 2.0 | 0.00 | 0.92 | 0.00 | 99 | 1012.6 |
| 20260905050216 | 76 | 0 | 0.0 | 0.0 | 0.00 | 0.92 | 0.00 | 99 | 1012.6 |
| 20260905045005 | 76 | 0 | 0.0 | 0.0 | 0.00 | 0.92 | 0.00 | 99 | 1012.8 |
| 20260905044005 | 76 | 0 | 0.0 | 0.0 | 0.00 | 0.92 | 0.00 | 99 | 1012.8 |
| 20260905043219 | 75 | 131 | 0.0 | 2.0 | 0.00 | 0.92 | 0.00 | 99 | 1012.8 |
| 20260905042005 | 75 | 157 | 0.0 | 2.0 | 0.00 | 0.92 | 0.00 | 99 | 1012.9 |
| 20260905041005 | 75 | 171 | 0.0 | 3.0 | 0.00 | 0.92 | 0.00 | 99 | 1012.9 |
| 20260905040028 | 75 | 146 | 0.0 | 2.0 | 0.00 | 0.92 | 0.00 | 99 | 1012.9 |
| 20260905035005 | 75 | 147 | 0.0 | 3.0 | 0.00 | 0.92 | 0.92 | 99 | 1013.1 |
| 20260905034005 | 75 | 151 | 0.0 | 1.0 | 0.01 | 0.92 | 0.92 | 99 | 1013.3 |
| 20260905033219 | 75 | 158 | 0.0 | 1.0 | 0.01 | 0.92 | 0.92 | 99 | 1013.3 |
| 20260905032006 | 75 | 0 | 0.0 | 0.0 | 0.01 | 0.92 | 0.92 | 99 | 1013.8 |
| 20260905031005 | 75 | 0 | 0.0 | 0.0 | 0.02 | 0.92 | 0.92 | 99 | 1013.6 |
| 20260905030005 | 75 | 0 | 0.0 | 0.0 | 0.03 | 0.92 | 0.92 | 99 | 1013.6 |
| 20260905025005 | 75 | 0 | 0.0 | 0.0 | 0.04 | 0.92 | 0.92 | 99 | 1013.6 |
| 20260905024005 | 75 | 0 | 0.0 | 0.0 | 0.04 | 0.91 | 0.91 | 99 | 1013.7 |
| 20260905023220 | 75 | 0 | 0.0 | 0.0 | 0.05 | 0.91 | 0.91 | 99 | 1013.6 |
| 20260905022216 | 74 | 142 | 0.0 | 1.0 | 0.06 | 0.91 | 0.91 | 99 | 1013.3 |
| 20260905021006 | 74 | 147 | 0.0 | 1.0 | 0.05 | 0.90 | 0.90 | 99 | 1013.6 |
| 20260905020006 | 74 | 160 | 0.0 | 1.0 | 0.04 | 0.89 | 0.89 | 99 | 1013.7 |
| 20260905015005 | 74 | 179 | 0.0 | 1.0 | 0.04 | 0.88 | 0.88 | 99 | 1013.8 |
| 20260905014005 | 74 | 0 | 0.0 | 0.0 | 0.03 | 0.87 | 0.87 | 99 | 1013.7 |
| 20260905013005 | 74 | 161 | 0.0 | 2.0 | 0.02 | 0.85 | 0.85 | 99 | 1013.5 |
| 20260905012005 | 74 | 78 | 0.0 | 1.0 | 0.03 | 0.85 | 0.85 | 99 | 1013.5 |
| 20260905011005 | 74 | 77 | 0.0 | 3.0 | 0.03 | 0.85 | 0.85 | 99 | 1013.8 |
| 20260905010005 | 74 | 79 | 0.0 | 3.0 | 0.04 | 0.85 | 0.85 | 99 | 1013.5 |
| 20260905005214 | 75 | 93 | 0.0 | 1.0 | 0.04 | 0.84 | 0.84 | 99 | 1013.4 |
| 20260905004215 | 75 | 77 | 0.0 | 1.0 | 0.05 | 0.84 | 0.84 | 99 | 1013.5 |
| 20260905003005 | 74 | 72 | 0.0 | 1.0 | 0.06 | 0.83 | 0.83 | 99 | 1013.6 |
| 20260905002005 | 75 | 80 | 1.0 | 4.0 | 0.08 | 0.82 | 0.82 | 99 | 1013.4 |
| 20260905001005 | 75 | 73 | 1.0 | 4.0 | 0.08 | 0.82 | 0.82 | 99 | 1013.3 |
| 20260905000006 | 76 | 100 | 0.0 | 1.0 | 0.07 | 0.81 | 0.81 | 99 | 1013.1 |
| 20260904235005 | 76 | 156 | 0.0 | 1.0 | 0.05 | 0.79 | 0.79 | 99 | 1012.9 |
| 20260904234005 | 76 | 168 | 0.0 | 2.0 | 0.06 | 0.79 | 0.79 | 99 | 1012.7 |
| 20260904233005 | 76 | 118 | 0.0 | 2.0 | 0.05 | 0.77 | 0.77 | 99 | 1012.9 |
| 20260904232005 | 76 | 137 | 0.0 | 1.0 | 0.04 | 0.74 | 0.74 | 99 | 1013.3 |
| 20260904231005 | 76 | 122 | 0.0 | 1.0 | 0.11 | 0.74 | 0.74 | 99 | 1013.0 |
| 20260904230005 | 76 | 91 | 0.0 | 1.0 | 0.21 | 0.74 | 0.74 | 99 | 1012.8 |
| 20260904225006 | 76 | 97 | 0.0 | 0.0 | 0.40 | 0.74 | 0.74 | 99 | 1013.0 |
| 20260904224005 | 75 | 93 | 0.0 | 2.0 | 0.70 | 0.73 | 0.73 | 99 | 1012.7 |
| 20260904223217 | 75 | 68 | 0.0 | 1.0 | 0.72 | 0.73 | 0.73 | 98 | 1012.6 |
| 20260904222005 | 75 | 67 | 0.0 | 1.0 | 0.70 | 0.70 | 0.70 | 98 | 1012.6 |
| 20260904221005 | 75 | 89 | 0.0 | 1.0 | 0.63 | 0.63 | 0.63 | 98 | 1012.7 |
| 20260904220006 | 75 | 134 | 0.0 | 2.0 | 0.53 | 0.53 | 0.53 | 97 | 1013.1 |
| 20260904215006 | 74 | 90 | 1.0 | 3.0 | 0.34 | 0.34 | 0.35 | 96 | 1013.4 |
| 20260904214005 | 75 | 218 | 2.0 | 7.0 | 0.03 | 0.03 | 0.04 | 94 | 1013.6 |
| 20260904213005 | 78 | 297 | 4.0 | 6.0 | 0.00 | 0.00 | 0.00 | 88 | 1013.5 |
| 20260904212005 | 81 | 331 | 4.0 | 10.0 | 0.00 | 0.00 | 0.00 | 87 | 1013.0 |
| 20260904211005 | 86 | 64 | 2.0 | 8.0 | 0.00 | 0.00 | 0.00 | 85 | 1012.4 |
| 20260904210216 | 86 | 74 | 2.0 | 8.0 | 0.00 | 0.00 | 0.00 | 85 | 1011.8 |